Simultaneous Nadir Overpasses (SNOs) Predictions

Prediction of SNOs between AURA and NPP Satellite Orbit:

Table of predicted SNOs for the next 14.0 days since TLE Epoch: 3/27/2021
Index Date (AURA) Time (AURA) Lat,Lon (AURA) SZA (AURA ) Date (NPP) Time (NPP) Lat,Lon (NPP) SZA (NPP ) Distance(km) Time Diff (sec)
1 03/27/2021 11:25:09 79.30, -95.89 90.20 03/27/2021 11:24:11 79.29, -96.02 90.27 2.80 58
2 03/27/2021 12:14:29 -79.57, 73.59 90.21 03/27/2021 12:14:48 -79.57, 73.50 90.21 1.83 19
3 03/30/2021 03:41:33 79.49, 21.27 88.86 03/30/2021 03:40:59 79.50, 21.42 88.86 3.18 34
4 03/30/2021 04:30:56 -79.65,-169.98 91.39 03/30/2021 04:31:40 -79.64,-170.09 91.40 2.34 44
5 04/01/2021 19:58:03 79.45, 136.85 87.87 04/01/2021 19:57:55 79.44, 136.71 87.90 2.92 8
6 04/01/2021 20:47:23 -79.72, -53.58 92.55 04/01/2021 20:48:32 -79.71, -53.68 92.58 2.06 69
7 04/04/2021 11:25:08 -79.33, 84.31 93.00 04/04/2021 11:24:07 -79.33, 84.30 92.95 0.11 61
8 04/04/2021 12:14:28 79.55,-106.57 86.68 04/04/2021 12:14:45 79.55,-106.66 86.68 1.85 17
9 04/07/2021 03:41:34 -79.43,-159.15 94.17 04/07/2021 03:40:58 -79.44,-159.08 94.16 1.63 36
10 04/07/2021 04:30:54 79.64, 9.99 85.51 04/07/2021 04:31:36 79.65, 9.98 85.48 0.22 42
11 04/09/2021 19:58:02 -79.45, -43.15 95.21 04/09/2021 19:57:52 -79.44, -43.26 95.18 2.28 10



Historial Predications of SNOs between AURA and NPP
